Location: Huppendorf
(49.9333°N, 11.1500°E)
Time: 20:01:21
(UTC+00:00)

STARLINK-32 - Pass Details

Date: 27 February 2020
Orbit: 529 x 530 km, 53.0° (Epoch: 05 April)

Event Time Altitude Azimuth Distance (km) Brightness Sun altitude
Rises 19:14:11 0° 287° (WNW) 2,673 8.6 -23.3°
Reaches altitude 10° 19:16:25 10° 290° (WNW) 1,782 7.3 -23.6°
Enters shadow 19:19:59 59° 335° (NNW) 617 3.9 -24.2°
